[ ตารางข้อมูล ] [ Min-Max ] [ วันนี้2 ] [ วันนี้4 ] [ เทียบ-A 3วัน ] [ เทียบ-B 4วัน ]   

วันนี้2   [ ◀ ช่วงเก่ากว่า ] [ ช่วงที่ 35 ] [ ช่วงใหม่กว่า ▶ ] [ ล่าสุด ]    [ 3 ชั่วโมง ] [ 6 ชั่วโมง ] [ 12 ชั่วโมง ] [ 24 ชั่วโมง ]   วันนี้2

อุณภูมิในตู้ Knockdown4529  ราย 6 ชั่วโมง  ที่วัดได้ ในช่วงวันเวลา 23/08/2026 (20:04) ถึง 24/08/2026 (02:04) 
ความชื้นในตู้ Knockdown4529  ราย 6 ชั่วโมง  ที่วัดได้ ในช่วงวันเวลา 23/08/2026 (20:04) ถึง 24/08/2026 (02:04) 
การใช้ไฟฟ้าในตู้ Knockdown4529  ราย 6 ชั่วโมง  ที่วัดได้ ในช่วงวันเวลา 23/08/2026 (20:04) ถึง 24/08/2026 (02:04) 

  DS18B20SHTC3PZEM-004TWiFi 
IDDate d/m/Y & Timedata1
สูง
data2
ต่ำ
data3
นอก
temp
pcb
hum
pcb
VoltAmpWattrssiTime
 15431  24/08/2026 02:00:43  30.2  30.4  27.3  31.1  67.0  228.7  0.04  4.5  -78  02:00 
 15430  24/08/2026 01:56:00  30.3  30.4  27.0  31.1  66.9  229.9  0.04  4.5  -79  01:56 
 15429  24/08/2026 01:51:16  30.3  30.5  27.2  31.2  66.9  228.4  0.04  4.5  -76  01:51 
 15428  24/08/2026 01:46:33  30.3  30.5  27.7  31.2  66.7  230.4  0.04  4.5  -78  01:46 
 15427  24/08/2026 01:41:48  30.4  30.5  27.7  31.2  66.8  228.1  0.04  4.6  -78  01:41 
 15426  24/08/2026 01:37:05  30.4  30.6  27.7  31.3  66.9  228.1  0.04  4.5  -78  01:37 
 15425  24/08/2026 01:32:21  30.4  30.6  27.9  31.2  66.8  228.1  0.04  4.5  -79  01:32 
 15424  24/08/2026 01:27:37  30.4  30.6  27.9  31.1  66.7  227.8  0.04  4.5  -77  01:27 
 15423  24/08/2026 01:22:54  30.4  30.6  27.9  31.5  66.8  228.3  0.04  4.5  -76  01:22 
 15422  24/08/2026 01:18:11  30.4  30.6  28.0  31.2  66.7  229.8  0.04  4.5  -77  01:18 
 15421  24/08/2026 01:13:27  30.5  30.7  28.0  31.5  66.8  227.6  0.04  4.5  -73  01:13 
 15420  24/08/2026 01:08:44  30.5  30.7  27.7  31.5  66.8  229.1  0.04  4.5  -74  01:08 
 15419  24/08/2026 01:04:00  30.6  30.7  27.5  31.4  66.7  228.1  0.04  4.5  -79  01:04 
 15418  24/08/2026 00:59:16  30.6  30.8  27.5  31.6  66.7  228.8  0.04  4.5  -78  00:59 
 15417  24/08/2026 00:54:33  30.6  30.8  27.6  31.5  66.7  227.8  0.04  4.5  -79  00:54 
 15416  24/08/2026 00:49:49  30.6  30.8  27.8  31.5  66.7  230.2  0.04  4.5  -77  00:49 
 15415  24/08/2026 00:45:05  30.6  30.8  27.9  31.6  66.7  230.3  0.04  4.5  -79  00:45 
 15414  24/08/2026 00:40:22  30.7  30.8  27.7  31.4  66.7  227.0  0.04  4.5  -75  00:40 
 15413  24/08/2026 00:35:38  30.7  30.8  27.7  31.4  66.6  228.4  0.04  4.5  -78  00:35 
 15412  24/08/2026 00:30:55  30.7  30.9  28.1  31.7  66.6  224.9  0.04  4.5  -78  00:30 
 15411  24/08/2026 00:26:12  30.8  30.9  28.0  31.6  66.5  227.8  0.04  4.5  -77  00:26 
 15410  24/08/2026 00:21:28  30.8  30.9  28.0  31.7  66.6  224.4  0.04  4.5  -76  00:21 
 15409  24/08/2026 00:16:45  30.8  30.9  28.1  31.8  66.7  226.6  0.04  4.5  -77  00:16 
 15408  24/08/2026 00:12:01  30.8  31.0  28.2  31.5  66.4  223.5  0.04  4.5  -76  00:12 

Data every 5 minute.


ใช้เวลาประมวลผล 0.03907 วินาที